User: anonymous   Login
Location: Moulis
(42.9609°N, 1.0909°E)
Time: 11:38:07
(UTC+00:00)
Language:

NOSS 2-3 (D) - Orbit

View from above orbital plane
View from above orbital plane
View from above satellite
View from above satellite

Ground track
Ground track

The orbit is defined by the following mean orbital elements,

1 23862U 96029D   24115.94632903 0.00005400  00000-0  12336-2 0    05
2 23862  63.3293  75.3255 0805311  38.6923 321.3077 13.42712074    09
Epoch (UTC): 24 April 2024 22:42:42
Eccentricity: 0.0805311
inclination: 63.3293°
perigee height: 497 km
apogee height: 1701 km
right ascension of ascending node: 75.3255°
argument of perigee: 38.6923°
revolutions per day: 13.42712074
mean anomaly at epoch: 321.3077°

The dashed part of the orbit path shows where the satellite is in the earth's shadow,  

DLR